Location: Centerville
(32.8776°N, 96.6203°W)
Time: 23:45:27
(UTC+00:00)

SL-16 R/B - Pass Details

Date: 17 June 2021
Orbit: 985 x 1007 km, 99.5° (Epoch: 01 August)

Event Time Altitude Azimuth Distance (km) Brightness Sun altitude
Exits shadow 09:56:32 13° 265° (W) 2,517 4.2 -14.8°
Maximum altitude 09:56:44 13° 267° (W) 2,515 4.2 -14.8°
Drops below altitude 10° 09:59:35 10° 295° (WNW) 2,759 4.6 -14.4°
Sets 10:03:38 0° 321° (NW) 3,708 5.6 -13.7°
